DW2128 Weather Reports


time (UTC)temp
C
wind
direction
speed
KPH
gust
KPH
rain 1hr
cm
rain 24hr
cm
rain mn
cm
humidity
%
barometer
mb
20260505233530 16 360 0.0 0.0 0.00 0.00 0.00 61 1013.6
20260505233337 16 360 0.0 0.0 0.00 0.00 0.00 61 1013.6
20260505232034 16 355 0.0 0.0 0.00 0.00 0.00 61 1013.6
20260505231837 16 355 0.0 0.0 0.00 0.00 0.00 62 1013.6
20260505230530 16 355 0.0 0.0 0.00 0.00 0.00 61 1013.6
20260505230338 16 355 0.0 0.0 0.00 0.00 0.00 62 1013.6
20260505225036 16 288 0.0 0.0 0.00 0.00 0.00 61 1013.6
20260505224840 16 288 0.0 0.0 0.00 0.00 0.00 61 1013.7
20260505223535 16 288 1.6 0.0 0.00 0.00 0.00 59 1013.7
20260505223359 17 288 1.6 0.0 0.00 0.00 0.00 58 1013.8
20260505222052 16 256 0.0 0.0 0.00 0.00 0.00 62 1013.8
20260505221840 16 255 1.6 0.0 0.00 0.00 0.00 62 1013.9
20260505220534 16 193 1.6 0.0 0.00 0.00 0.00 61 1013.9
20260505220359 16 193 1.6 0.0 0.00 0.00 0.00 60 1014.0
20260505215031 16 184 0.0 0.0 0.00 0.00 0.00 62 1014.0
20260505214837 16 184 0.0 0.0 0.00 0.00 0.00 62 1014.1
20260505213531 16 185 0.0 0.0 0.00 0.00 0.00 63 1014.1
20260505213341 16 185 0.0 0.0 0.00 0.00 0.00 63 1014.2
20260505212055 15 185 0.0 0.0 0.00 0.00 0.00 62 1014.2
20260505211838 15 185 0.0 0.0 0.00 0.00 0.00 62 1014.1
20260505210533 15 185 0.0 0.0 0.00 0.00 0.00 62 1014.1
20260505210337 15 185 0.0 0.0 0.00 0.00 0.00 62 1014.1
20260505205052 16 184 0.0 0.0 0.00 0.00 0.00 60 1014.1
20260505204858 16 184 0.0 0.0 0.00 0.00 0.00 60 1014.1
20260505203530 16 184 0.0 0.0 0.00 0.00 0.00 60 1014.1
20260505203354 16 184 0.0 0.0 0.00 0.00 0.00 60 1014.1
20260505202026 16 184 0.0 0.0 0.00 0.00 0.00 60 1014.1
20260505201830 16 184 0.0 0.0 0.00 0.00 0.00 60 1014.3
20260505200523 16 183 0.0 0.0 0.00 0.00 0.00 61 1014.3
20260505200331 15 182 0.0 0.0 0.00 0.00 0.00 61 1014.4
20260505195045 15 182 0.0 0.0 0.00 0.00 0.00 61 1014.4
20260505194832 15 182 0.0 0.0 0.00 0.00 0.00 61 1014.6
20260505193526 15 184 0.0 0.0 0.00 0.00 0.00 62 1014.6
20260505193331 15 184 1.6 0.0 0.00 0.00 0.00 62 1014.5
20260505192028 15 183 3.2 0.0 0.00 0.00 0.00 62 1014.5
20260505191857 15 39 1.6 0.0 0.00 0.00 0.00 61 1014.3
20260505190530 15 13 1.6 0.0 0.00 0.00 0.00 64 1014.3
20260505190336 15 13 1.6 0.0 0.00 0.00 0.00 64 1014.2
20260505185028 15 13 4.8 0.0 0.00 0.00 0.00 65 1014.2
20260505184833 15 13 3.2 0.0 0.00 0.00 0.00 64 1014.3
20260505183547 15 360 3.2 0.0 0.00 0.00 0.00 63 1014.3
20260505183337 15 360 3.2 0.0 0.00 0.00 0.00 64 1014.3
20260505182030 14 342 0.0 0.0 0.00 0.00 0.00 63 1014.3
20260505181854 14 342 0.0 0.0 0.00 0.00 0.00 64 1014.2
20260505180532 14 240 0.0 0.0 0.00 0.00 0.00 62 1014.2
20260505180336 14 240 0.0 0.0 0.00 0.00 0.00 62 1014.1
20260505175030 14 240 0.0 0.0 0.00 0.00 0.00 63 1014.1
20260505174837 14 240 0.0 0.0 0.00 0.00 0.00 63 1013.9
20260505173531 14 241 0.0 0.0 0.00 0.00 0.00 62 1013.9
20260505173336 14 241 0.0 0.0 0.00 0.00 0.00 62 1013.8
20260505172030 14 242 0.0 0.0 0.00 0.00 0.00 63 1013.8
20260505171835 14 242 0.0 0.0 0.00 0.00 0.00 63 1013.7
20260505170529 13 242 0.0 0.0 0.00 0.00 0.00 63 1013.7
20260505170338 13 242 0.0 0.0 0.00 0.00 0.00 63 1013.7
20260505165032 13 242 0.0 0.0 0.00 0.00 0.00 65 1013.7
20260505164838 13 242 0.0 0.0 0.00 0.00 0.00 64 1013.6
20260505163532 13 239 0.0 0.0 0.00 0.00 0.00 65 1013.6
20260505163341 13 239 0.0 0.0 0.00 0.00 0.00 65 1013.6
20260505162035 13 239 0.0 0.0 0.00 0.00 0.00 67 1013.6
20260505161839 13 239 0.0 0.0 0.00 0.00 0.00 67 1013.6
20260505160533 13 239 0.0 0.0 0.00 0.00 0.00 66 1013.6
20260505160359 13 239 0.0 0.0 0.00 0.00 0.00 67 1013.6
20260505153327 12 238 0.0 0.0 0.00 0.00 0.00 68 1013.4
20260505152021 12 239 0.0 0.0 0.00 0.00 0.00 68 1013.4
20260505151828 12 239 0.0 0.0 0.00 0.00 0.00 68 1013.3
20260505150523 12 241 0.0 0.0 0.00 0.00 0.00 68 1013.3
20260505150332 12 241 0.0 0.0 0.00 0.00 0.00 69 1013.3
20260505140530 12 242 0.0 0.0 0.00 0.00 0.00 70 1012.9
20260505140335 12 242 0.0 0.0 0.00 0.00 0.00 70 1012.8
20260505125029 11 242 0.0 0.0 0.00 0.00 0.00 70 1012.6
20260505124834 12 242 0.0 0.0 0.00 0.00 0.00 70 1012.6
20260505123528 12 242 0.0 0.0 0.00 0.00 0.00 70 1012.6
20260505123336 12 242 0.0 0.0 0.00 0.00 0.00 70 1012.6
20260505122030 11 242 0.0 0.0 0.00 0.00 0.00 70 1012.6
20260505121835 11 242 0.0 0.0 0.00 0.00 0.00 70 1012.9
20260505120530 12 242 0.0 0.0 0.00 0.00 0.00 70 1012.9
20260505120335 12 242 0.0 0.0 0.00 0.00 0.00 69 1012.9
20260505115050 12 242 0.0 0.0 0.00 0.00 0.00 69 1012.9
20260505114838 12 242 0.0 0.0 0.00 0.00 0.00 69 1013.0
20260505113531 12 242 0.0 0.0 0.00 0.00 0.00 69 1013.0
20260505113340 12 242 0.0 0.0 0.00 0.00 0.00 69 1012.8
20260505112035 12 242 0.0 0.0 0.00 0.00 0.00 68 1012.8
20260505111823 12 242 0.0 0.0 0.00 0.00 0.00 68 1012.9
20260505110517 12 242 0.0 0.0 0.00 0.00 0.00 67 1012.9
20260505110345 12 242 0.0 0.0 0.00 0.00 0.00 67 1012.8
20260505102022 12 242 0.0 0.0 0.00 0.00 0.00 65 1012.8
20260505101828 12 242 0.0 0.0 0.00 0.00 0.00 65 1013.0
20260505100522 12 242 1.6 0.0 0.00 0.00 0.00 65 1013.0
20260505100328 12 242 1.6 0.0 0.00 0.00 0.00 65 1013.0
20260505095022 12 246 0.0 0.0 0.00 0.00 0.00 65 1013.0
20260505094830 12 246 0.0 0.0 0.00 0.00 0.00 64 1013.1
20260505093524 12 246 0.0 0.0 0.00 0.00 0.00 64 1013.1
20260505093329 12 246 0.0 0.0 0.00 0.00 0.00 64 1013.1
20260505092043 12 246 0.0 0.0 0.00 0.00 0.00 63 1013.1
20260505091826 12 246 0.0 0.0 0.00 0.00 0.00 62 1013.3
20260505090526 12 246 0.0 0.0 0.00 0.00 0.00 62 1013.3
20260505090336 12 246 0.0 0.0 0.00 0.00 0.00 62 1013.5
20260505085031 12 246 0.0 0.0 0.00 0.00 0.00 62 1013.5
20260505084835 12 246 0.0 0.0 0.00 0.00 0.00 63 1013.6
20260505083532 12 246 0.0 0.0 0.00 0.00 0.00 63 1013.6
20260505083323 12 246 0.0 0.0 0.00 0.00 0.00 63 1013.6
20260505082021 12 259 0.0 0.0 0.00 0.00 0.00 66 1013.6
20260505081824 12 259 0.0 0.0 0.00 0.00 0.00 66 1013.6
20260505080519 12 259 0.0 0.0 0.00 0.00 0.00 68 1013.6
20260505080327 12 259 0.0 0.0 0.00 0.00 0.00 68 1013.7
20260505075042 12 259 0.0 0.0 0.00 0.00 0.00 69 1013.7
20260505074829 12 259 0.0 0.0 0.00 0.00 0.00 69 1013.6
20260505073559 12 259 0.0 0.0 0.00 0.00 0.00 72 1013.6
20260505073327 12 259 0.0 0.0 0.00 0.00 0.00 72 1013.6
20260505072021 13 258 0.0 0.0 0.00 0.00 0.00 74 1013.6
20260505071829 13 258 0.0 0.0 0.00 0.00 0.00 73 1013.4
20260505070523 13 258 0.0 0.0 0.00 0.00 0.00 72 1013.4
20260505070353 13 258 0.0 0.0 0.00 0.00 0.00 72 1013.5
20260505065026 13 258 0.0 0.0 0.00 0.00 0.00 72 1013.5
20260505064830 13 258 0.0 0.0 0.00 0.00 0.00 72 1013.5
20260505063545 12 258 0.0 0.0 0.00 0.00 0.00 72 1013.5
20260505063329 13 258 0.0 0.0 0.00 0.00 0.00 72 1013.2
20260505062024 13 258 0.0 0.0 0.00 0.00 0.00 72 1013.2
20260505061833 13 258 0.0 0.0 0.00 0.00 0.00 71 1013.2
20260505060527 13 258 0.0 0.0 0.00 0.00 0.00 72 1013.2
20260505060331 13 258 0.0 0.0 0.00 0.00 0.00 72 1013.4
20260505055025 13 258 0.0 0.0 0.00 0.00 0.00 70 1013.4
20260505054829 13 258 0.0 0.0 0.00 0.00 0.00 70 1013.6
20260505053523 13 258 0.0 0.0 0.00 0.00 0.00 69 1013.6
20260505053332 13 258 0.0 0.0 0.00 0.00 0.00 69 1013.9
20260505052029 13 258 0.0 0.0 0.00 0.00 0.00 68 1013.9
20260505051835 13 258 0.0 0.0 0.00 0.00 0.00 68 1013.8
20260505050530 13 258 0.0 0.0 0.00 0.00 0.00 68 1013.8
20260505050333 13 258 0.0 0.0 0.00 0.00 0.00 68 1013.6
20260505040530 15 250 0.0 0.0 0.00 0.00 0.00 61 1013.2
20260505040339 15 250 0.0 0.0 0.00 0.00 0.00 61 1013.0
20260505035034 15 250 0.0 0.0 0.00 0.00 0.00 59 1013.0
20260505034900 15 250 0.0 0.0 0.00 0.00 0.00 59 1012.6
20260505033533 15 249 0.0 0.0 0.00 0.00 0.00 58 1012.6
20260505033322 15 249 0.0 0.0 0.00 0.00 0.00 57 1012.6
20260505032018 15 355 0.0 0.0 0.00 0.00 0.00 57 1012.6
20260505031825 15 355 0.0 0.0 0.00 0.00 0.00 57 1012.6
20260505030541 15 355 0.0 0.0 0.00 0.00 0.00 57 1012.6
20260505030323 15 355 0.0 0.0 0.00 0.00 0.00 56 1012.6
20260505025020 15 355 0.0 0.0 0.00 0.00 0.00 59 1012.6
20260505024849 15 355 0.0 0.0 0.00 0.00 0.00 58 1012.5
20260505023522 15 339 0.0 0.0 0.00 0.00 0.00 58 1012.5
20260505023348 15 342 0.0 0.0 0.00 0.00 0.00 58 1012.4
20260505022022 15 9 1.6 0.0 0.00 0.00 0.00 59 1012.4
20260505021847 15 329 3.2 0.0 0.00 0.00 0.00 58 1012.5
20260505020541 16 15 1.6 0.0 0.00 0.00 0.00 57 1012.5
20260505020328 16 15 1.6 0.0 0.00 0.00 0.00 56 1012.5
20260505015023 16 288 1.6 0.0 0.00 0.00 0.00 54 1012.5
20260505014828 16 276 1.6 0.0 0.00 0.00 0.00 54 1012.4
20260505013523 16 300 0.0 0.0 0.00 0.00 0.00 55 1012.4
20260505013327 16 5 0.0 0.0 0.00 0.00 0.00 55 1012.6
20260505012021 16 349 1.6 0.0 0.00 0.00 0.00 54 1012.6
20260505011831 16 315 1.6 0.0 0.00 0.00 0.00 55 1012.6
20260505010525 17 9 1.6 0.0 0.00 0.00 0.00 54 1012.6
20260505010329 17 5 1.6 0.0 0.00 0.00 0.00 53 1012.6
20260505005024 17 234 0.0 0.0 0.00 0.00 0.00 54 1012.6
20260505004828 17 244 1.6 0.0 0.00 0.00 0.00 54 1012.7
20260505003524 17 281 1.6 0.0 0.00 0.00 0.00 55 1012.7
20260505003333 17 266 1.6 0.0 0.00 0.00 0.00 56 1012.7
20260505002048 17 244 1.6 0.0 0.00 0.00 0.00 55 1012.7
20260505001832 17 244 1.6 0.0 0.00 0.00 0.00 55 1012.6
20260505000528 17 240 1.6 0.0 0.00 0.00 0.00 53 1012.6
20260505000334 18 240 1.6 0.0 0.00 0.00 0.00 52 1012.6
20260504235028 19 11 1.6 0.0 0.00 0.00 0.00 51 1012.6
20260504234836 18 13 1.6 0.0 0.00 0.00 0.00 51 1012.6